EWG24H EDDS-EDDM

Flight info

Callsign EWG24H
Flight time N/A
Altitude 21000
Route ABTAL4H/07 ABTAL L173 RIXED Y161 RIDAR Z98 WLD T104 ROKIL ROKIL1A
Aircraft A320/M-SDE3FGHIRWY/LB1

Departure

Time 2026-05-01 13:23
Airport Stuttgart Airport (EDDS)

Arrival

Time N/A
Airport Munich Airport (EDDM)
Time Latitude Longitude Altitude Speed Heading
2026-05-01 12:52 48.68885 9.19360 1316 ft 0 kts 343°
2026-05-01 13:13 48.68863 9.19370 1315 ft 4 kts 348°
2026-05-01 13:13 48.68841 9.19375 1314 ft 4 kts
2026-05-01 13:14 48.68816 9.19367 1314 ft 4 kts 37°
2026-05-01 13:14 48.68799 9.19337 1314 ft 4 kts 67°
2026-05-01 13:14 48.68793 9.19307 1314 ft 0 kts 73°
2026-05-01 13:15 48.68792 9.19307 1314 ft 0 kts 73°
2026-05-01 13:17 48.68796 9.19326 1314 ft 6 kts 74°
2026-05-01 13:17 48.68813 9.19417 1313 ft 11 kts 74°
2026-05-01 13:18 48.68872 9.19720 1307 ft 19 kts 74°
2026-05-01 13:18 48.68867 9.19878 1301 ft 13 kts 144°
2026-05-01 13:18 48.68811 9.19927 1296 ft 9 kts 154°
2026-05-01 13:18 48.68775 9.19953 1294 ft 7 kts 155°
2026-05-01 13:19 48.68747 9.19965 1292 ft 5 kts 165°
2026-05-01 13:19 48.68706 9.19982 1290 ft 7 kts 165°
2026-05-01 13:19 48.68651 9.20004 1291 ft 8 kts 165°
2026-05-01 13:20 48.68583 9.20055 1284 ft 10 kts 103°
2026-05-01 13:20 48.68598 9.20137 1282 ft 5 kts 73°
2026-05-01 13:20 48.68600 9.20145 1281 ft 1 kts 73°
2026-05-01 13:21 48.68604 9.20166 1282 ft 0 kts 73°
2026-05-01 13:21 48.68605 9.20170 1282 ft 0 kts 73°
2026-05-01 13:21 48.68605 9.20171 1282 ft 1 kts 73°
2026-05-01 13:21 48.68610 9.20193 1281 ft 0 kts 73°
2026-05-01 13:22 48.68610 9.20194 1281 ft 0 kts 73°
2026-05-01 13:23 48.68631 9.20300 1279 ft 43 kts 73°
2026-05-01 13:23 48.68788 9.21114 1261 ft 113 kts 73°
2026-05-01 13:23 48.69046 9.22520 1270 ft 162 kts 73°
2026-05-01 13:23 48.69339 9.24182 1885 ft 167 kts 76°
2026-05-01 13:24 48.69632 9.25962 2434 ft 179 kts 76°
2026-05-01 13:24 48.69952 9.27842 2968 ft 192 kts 78°
2026-05-01 13:24 48.70313 9.29938 3378 ft 216 kts 76°
2026-05-01 13:25 48.71203 9.34768 4506 ft 254 kts 76°
2026-05-01 13:25 48.71737 9.37368 5354 ft 261 kts 75°
2026-05-01 13:25 48.72285 9.40021 6255 ft 267 kts 75°
2026-05-01 13:25 48.72826 9.42699 7105 ft 272 kts 76°
2026-05-01 13:26 48.73359 9.45412 7971 ft 275 kts 76°
2026-05-01 13:26 48.73897 9.48217 8848 ft 279 kts 76°
2026-05-01 13:26 48.74415 9.50949 9732 ft 281 kts 77°
2026-05-01 13:26 48.74964 9.53853 10556 ft 287 kts 77°
2026-05-01 13:27 48.75510 9.56772 10863 ft 309 kts 76°
2026-05-01 13:27 48.76118 9.60026 11131 ft 332 kts 77°
2026-05-01 13:27 48.77366 9.66717 12424 ft 345 kts 76°
2026-05-01 13:28 48.78681 9.73766 14006 ft 350 kts 75°
2026-05-01 13:28 48.79346 9.77347 14661 ft 355 kts 75°
2026-05-01 13:29 48.80687 9.84596 16022 ft 361 kts 75°
2026-05-01 13:29 48.82000 9.91728 17334 ft 365 kts 75°
2026-05-01 13:30 48.84718 10.06591 19704 ft 379 kts 76°
2026-05-01 13:31 48.85171 10.14449 20813 ft 386 kts 94°
2026-05-01 13:31 48.84171 10.26751 21353 ft 401 kts 96°
2026-05-01 13:32 48.83495 10.35037 21351 ft 402 kts 97°